星链-3749 (STARLINK-3749 )

导读

STARLINK-3749是美国太空探索技术公司(SpaceX)于2022年4月21日发射的星链(Starlink)系列卫星,属于星链低轨卫星互联网星座的组成部分。星链计划旨在构建全球卫星互联网,为全球范围提供高速宽带服务,STARLINK-3749承担着扩展星座覆盖范围、增强网络通信容量与稳定性的任务,助力实现全球无缝网络连接,尤其为偏远地区提供网络接入服务,推动全球互联网普及进程。

Basic Information
目录编号:
52313
目录名称:
STARLINK-3749
国际标识:
2022-041BE
轨道中心:
EARTH
卫星名称:
星链-3749
卫星全名:
星链-3749 (STARLINK-3749 )
卫星状态:
在轨 (已飞行1597 天)
发射日期:
2022-04-21 UTC
国别 :
美国 (US)
星等 :
--
Orbit Information
数据来源 国际轨道数据
星历时间: 2026-09-02T22:23:32+0800
1天前
查看轨道信息
半长轴: 6843.374km
偏心率: 0.0001111
轨道倾角: 53.161°
近地点辐角 77.622°
升交点赤经 5.423°
平近点角 282.491°
近地点: 464.476km
远地点: 465.998km
周期: 93.900分钟
每日圈数: 15.335481
Detailed Information
固有亮度:
5
最大亮度:
2.5
卫星平台:
Starlink v1.5
覆盖范围:
全球
运营商:
太空探索技术公司
运营商所在国:
美国
制造商(研发单位):
太空探索技术公司
制造商所在国:
美国
使用方式:
暂无
Satellite Introduction
星链(Starlink)计划是由太空探索技术公司(SpaceX)提出的一个巨型低轨卫星互联网星座项目,计划在2019年至2024年间在太空搭建由约1.2万颗卫星组成的“星链”网络,其中1584颗将部署在地球上空550千米处的近地轨道,并从2020年开始工作。该卫星仍在工作。
2D Orbit Map
3D Orbit Map
Orbit Altitude Analysis Chart
Orbit Inclination Analysis Chart
Orbit Comprehensive Analysis Chart
View Comprehensive Chart
Conjunction Data List
Event ID Objects TCA Miss Dist (km) Collision Risk Probability Collision Risk Index (CRI) Action
CDM_260905-131305-231306-943121
2026-09-05T
13:13:08+0000
1.930 km
极远距离
2.896088E-6 低风险 0.44
CDM_260829-014405-231306-059623
2026-08-29T
01:44:34+0000
2.410 km
极远距离
1.666098E-6 低风险 0.39
CDM_260905-145905-231306-916121
2026-09-05T
14:59:57+0000
2.530 km
极远距离
1.490512E-6 低风险 0.38
CDM_260905-134505-180405-231321
2026-09-05T
13:45:12+0000
2.553 km
极远距离
1.382086E-6 低风险 0.38
CDM_260828-231305-231306-547121
2026-08-28T
23:13:43+0000
2.682 km
极远距离
1.364623E-6 低风险 0.38
CDM_260903-072405-231306-621421
2026-09-03T
07:24:38+0000
2.652 km
极远距离
1.311879E-6 低风险 0.37
CDM_260904-172005-231306-238023
OBJECT D (62380)
2026-09-04T
17:20:05+0000
2.702 km
极远距离
1.294634E-6 低风险 0.37
CDM_260830-154905-231306-543121
2026-08-30T
15:49:30+0000
2.698 km
极远距离
1.285704E-6 低风险 0.37
CDM_260904-141005-231305-894021
2026-09-04T
14:10:32+0000
2.846 km
极远距离
1.26839E-6 低风险 0.37
CDM_260904-193305-231305-785221
2026-09-04T
19:33:26+0000
2.910 km
极远距离
1.24598E-6 低风险 0.37